Location: Proctor
(47.8934°N, 114.3048°W)
Time: 03:18:07
(UTC+00:00)

AO-109 - Pass Details

Date: 10 July 2022
Orbit: 470 x 506 km, 60.7° (Epoch: 07 August)

Event Time Altitude Azimuth Distance (km) Brightness Sun altitude
Exits shadow 08:27:10 28° 120° (ESE) 917 ? -19.2°
Drops below altitude 10° 08:30:16 10° 64° (ENE) 1,667 ? -19.1°
Sets 08:32:37 0° 53° (NE) 2,560 ? -19.0°
